Lid_Strength_Index
11 11 12 11 12 12 12 13 13 13 13 13 13 13 13 13 13 13 13 13 14 13 12 12 13 13 13 13 12 12 14 14 15 13 13 11 11 11 10 9 8 7 8
11 11 12 12 12 12 13 13 13 13 13 13 13 13 13 13 13 14 14 15 14 13 12 14 15 13 13 13 13 13 15 13 13 15 14 13 12 11 10 10 9 6 7
12 12 12 12 12 13 13 13 13 13 13 13 13 13 13 13 14 14 15 15 13 12 14 15 14 13 13 13 13 14 15 13 13 14 14 13 11 9 10 9 9 7 7
12 12 12 12 12 13 13 13 13 14 14 14 13 13 14 14 15 15 14 14 12 13 15 15 14 13 14 14 13 14 14 13 13 14 13 11 10 9 9 9 8 8 11
12 12 12 12 13 13 14 14 14 14 14 14 14 14 15 15 15 15 15 13 14 15 15 15 14 13 13 12 12 13 13 13 13 13 13 11 11 10 9 7 8 9 11
12 12 13 13 13 13 14 14 14 14 14 14 14 15 15 15 14 13 12 13 15 16 17 17 15 14 13 11 11 11 11 11 12 13 12 11 10 8 8 8 9 10 12
13 13 13 13 14 14 14 14 15 15 15 15 18 19 20 19 14 12 11 13 18 20 20 18 17 15 14 12 11 11 11 10 9 11 11 10 9 8 8 9 11 12 14
14 14 14 14 14 15 15 15 16 16 16 19 21 22 23 21 13 12 11 15 22 23 22 21 19 18 15 12 12 12 12 11 10 11 11 10 9 9 9 10 12 13 14
14 14 14 14 14 15 15 15 18 17 15 17 21 22 23 22 14 12 14 20 22 22 22 20 19 15 13 11 13 13 12 12 11 11 11 11 10 10 10 11 13 15 17
14 14 14 14 14 15 15 16 17 19 15 17 20 21 21 20 14 12 14 21 23 24 23 21 16 14 13 11 13 14 14 15 14 17 16 15 15 14 13 14 13 16 17
14 14 15 14 14 14 15 17 16 16 15 16 17 22 21 20 19 12 12 22 22 24 24 21 19 13 13 12 13 14 14 15 16 17 19 18 17 17 17 16 15 16 17
16 15 15 15 14 15 15 16 16 15 15 16 19 21 20 22 18 13 12 13 16 22 22 20 19 13 13 13 15 13 14 15 17 18 20 18 19 18 18 18 18 18 17
17 17 16 16 15 15 15 16 15 15 15 16 19 19 20 20 22 13 13 13 13 22 23 18 14 15 15 18 14 15 17 20 20 20 23 20 19 18 18 18 18 18 19
17 18 17 16 15 15 15 15 15 15 15 16 18 18 18 19 19 19 18 19 16 18 18 21 17 17 16 18 21 20 21 23 24 23 23 20 21 20 20 19 20 20 21
17 17 16 15 15 15 15 14 14 14 14 15 16 15 17 18 17 15 16 18 21 18 24 25 23 22 23 23 23 23 22 21 23 23 21 21 20 21 20 19 20 20 22
16 17 15 15 15 14 15 15 12 13 13 12 12 14 16 14 13 12 12 12 13 15 26 27 24 23 23 23 24 24 23 23 22 23 22 21 21 21 21 20 20 21 22
15 15 15 14 14 14 15 14 15 14 12 12 11 11 12 13 12 11 12 12 12 16 27 27 25 23 23 23 23 24 24 23 23 23 23 22 20 20 21 21 21 21 22
14 14 14 14 13 14 14 14 13 14 14 14 11 11 10 11 11 11 11 13 19 19 27 27 26 24 24 24 25 25 24 24 24 23 23 24 23 22 21 21 21 21 22
14 13 13 13 13 13 14 14 13 14 14 17 15 11 11 10 10 11 11 17 18 21 23 26 27 25 25 25 27 27 25 25 26 26 25 24 23 21 22 22 22 21 22
15 14 14 13 13 14 14 14 14 13 14 15 16 14 12 12 12 13 13 14 18 18 21 21 25 26 25 25 27 29 28 27 26 27 27 26 25 23 23 23 22 22 22
17 15 15 14 14 13 13 14 14 14 14 14 15 14 12 12 12 13 15 16 15 16 19 21 22 25 26 26 26 27 27 27 28 27 27 27 25 25 25 25 25 26 25
19 16 15 15 15 14 14 13 13 14 14 13 13 15 11 13 13 13 15 15 14 15 17 18 21 22 24 25 24 25 26 27 28 27 27 27 26 27 27 27 26 27 27
19 17 17 14 14 13 14 13 14 14 13 12 12 14 14 11 13 14 14 14 14 16 17 18 20 23 24 25 24 23 24 25 25 25 26 26 26 27 27 27 28 29 30
20 20 18 16 13 13 13 13 13 13 13 12 12 12 12 12 11 13 14 14 15 16 17 18 19 21 23 24 26 25 27 27 26 26 26 26 27 27 27 28 28 29 28
20 19 17 15 14 13 12 12 12 12 12 11 11 11 11 11 10 10 13 14 15 16 17 18 19 20 22 23 24 26 26 24 27 27 26 27 28 28 27 28 28 30 32
22 21 20 19 17 16 13 12 12 11 11 11 10 10 11 10 10 10 12 14 16 16 17 18 19 20 21 22 23 24 24 24 26 27 26 26 27 28 28 29 30 29 30